Tracking 19827 objects as of 22-Aug-2019
HD Live streaming from Space Station
objects crossing your sky now

FENGYUN 1C DEB

Track FENGYUN 1C DEB now!
10-day predictions


NORAD ID: 31773
Int'l Code: 1999-025CFY
Perigee: 723.8 km
Apogee: 825.2 km
Inclination: 99.0 °
Period: 100.2 minutes
Semi major axis: 7145 km
RCS: 0.0025 m2 (small)
Launch date: May 10, 1999
Source: People's Republic of China (PRC)
Launch site: Taiyaun Space Center, China (TSC)

Note: This is SATELLITE DEBRIS
aabbcc
Your satellite tracking list
Your tracking list is empty




NASA's NSSDC Master Catalog

Two Line Element Set (TLE):
1 31773U 99025CFY 19233.80611868  .00000525  00000-0  18689-3 0  9999
2 31773  99.0059  70.1515 0070978 216.6896 142.9418 14.37329796639078
Source of the keplerian elements: AFSPC